Location: Marshall
(39.8477°N, 87.1868°W)
Time: 02:41:34
(UTC+00:00)

BlueWalker 3 - Pass Details

Date: 17 May 2026
Orbit: 447 x 456 km, 53.2° (Epoch: 9 June)

Event Time Altitude Azimuth Distance (km) Brightness Sun altitude
Exits shadow 06:18:05 16° 355° (N) 1,241 4.6 -30.3°
Drops below altitude 10° 06:19:43 10° 21° (NNE) 1,574 5.3 -30.3°
Sets 06:22:23 0° 42° (NE) 2,448 6.3 -30.2°
